Location: Le Sartre
(44.8050°N, 2.2123°E)
Time: 11:14:43
(UTC+00:00)

CZ-2C R/B - Pass Details

Date: 15 May 2026
Orbit: 703 x 901 km, 98.2° (Epoch: 7 June)

Event Time Altitude Azimuth Distance (km) Brightness Sun altitude
Rises 23:01:12 0° 20° (NNE) 3,510 7.3 -25.3°
Reaches altitude 10° 23:03:47 10° 28° (NNE) 2,578 6.3 -25.4°
Maximum altitude 23:09:09 38° 96° (E) 1,339 4.0 -25.5°
Enters shadow 23:09:27 38° 103° (ESE) 1,344 4.0 -25.6°
